Location: Ferintosh
(52.7647°N, 112.9692°W)
Time: 19:02:44
(UTC+00:00)

A-11 Canister half - Pass Details

Date: 21 May 2024
Orbit: 1515 x 1685 km, 47.2° (Epoch: 12 June)

Event Time Altitude Azimuth Distance (km) Brightness Sun altitude
Rises 11:24:29 0° 243° (WSW) 4,739 - -0.9°
Exits shadow 11:24:40 - 243° (WSW) 4,682 10.9 -0.9°
Reaches altitude 10° 11:27:38 10° 240° (WSW) 3,735 10.4 -0.5°
Maximum altitude 11:36:43 57° 165° (SSE) 1,756 9.3 0.6°
Drops below altitude 10° 11:45:40 10° 90° (E) 3,677 12.1 1.8°
Sets 11:48:44 0° 87° (E) 4,660 12.8 2.1°
